Regional Weather Roundup
Issued by NWS

Home | Current Version | Previous Version | Graphics & Text | Print | Product List | Glossary On
Versions: 1 2 3 4 5 6 7 8 9 10 11 12 13 14 15 16 17 18 19 20 21 22 23 24 25 26 27 28 29 30 31 32 33 34 35 36 37 38 39 40 41 42 43 44 45 46 47 48 49 50
703
ASUS43 KIND 181559
RWRIN

WEATHER ROUNDUP FOR INDIANA
NATIONAL WEATHER SERVICE INDIANAPOLIS IN
1100 AM EST SAT NOV 18 2017

NOTE: "FAIR" INDICATES FEW OR NO CLOUDS BELOW 12,000 FEET WITH NO
SIGNIFICANT WEATHER AND/OR OBSTRUCTIONS TO VISIBILITY.

* - STATION DOES NOT REPORT WEATHER SUCH AS PRECIPITATION OR FOG.

+ - STATION NOT QUALITY CONTROLLED BY THE NATIONAL WEATHER SERVICE.
    USE DATA WITH CAUTION...ESPECIALLY DEWPOINT AND RELATIVE
    HUMIDITY OBSERVATIONS.

INZ001>003-010>013-019-020-181700-
NORTHWEST INDIANA

CITY           SKY/WX    TMP DP  RH WIND       PRES   REMARKS
GARY /AIRPORT/ RAIN      45  45 100 N17G31    29.44R
KNOX *+        CLOUDY    45  45 100 N12       29.34F
MONTICELLO +   LGT RAIN  52  50  95 NE8       29.26F
RENSSELAER +   TSTM      46  43  87 N13       29.36R
VALPARAISO     RAIN      48  46  93 N9G21     29.39S FOG

$$

LMZ046-743>745-181700-
SOUTHERN LAKE MICHIGAN

STATION/POSITION TIME  TEMP    WIND        PRES    WAVE
                       AIR SEA DIR/SP/G            HT
                 (UTC) (F)     (DEG/KT/KT) (MB)    (FT)
BURNS HARBOR     1540   46      10/ 21/ 25  997.0F
MICHIGAN CITY    1530   45      10/ 21/ 23   N/A

$$

INZ004-005-014>016-021>024-181700-
NORTH CENTRAL INDIANA

CITY           SKY/WX    TMP DP  RH WIND       PRES   REMARKS
ELKHART        CLOUDY    45  45 100 E7        29.36F
GOSHEN         LGT RAIN  47  44  90 NE10      29.34F FOG
PERU/GRISSOM   TSTM      52  52 100 E10       29.27F
SOUTH BEND     RAIN      45  45 100 N8        29.39F FOG
WARSAW +       RAIN      46  46 100 E9        29.32F

$$

INZ006>009-017-018-025>027-181700-
NORTHEAST INDIANA

CITY           SKY/WX    TMP DP  RH WIND       PRES   REMARKS
AUBURN +       MIX PCPN  46  45  93 E7        29.38F
FORT WAYNE     TSTM      52  51  97 E7        29.37F VSB 1/2
KENDALLVILLE + RAIN      46  46 100 SE8       29.37F

$$

INZ028-029-035-036-043>045-051>053-181700-
WEST CENTRAL INDIANA

CITY           SKY/WX    TMP DP  RH WIND       PRES   REMARKS
CRAWFORDSVL +  CLOUDY    59  59 100 S26G37    29.28F
GREENCASTLE +  CLOUDY    61  55  82 S15G26    29.31F
LAFAYETTE      HVY RAIN  54  54 100 VRB6      29.22F FOG
TERRE HAUTE    CLOUDY    65  58  78 S21G30    29.32F

$$

INZ030>032-037>040-046>048-054>057-064-065-181700-
CENTRAL INDIANA

CITY           SKY/WX    TMP DP  RH WIND       PRES   REMARKS
ANDERSON       CLOUDY    57  55  94 S17G29    29.35F
COLUMBUS       CLOUDY    63  54  72 S26G37    29.40F
FRANKFORT +    TSTM      63  60  90 SW17G29   29.27F
INDIANAPOLIS   CLOUDY    64  58  80 S28G40    29.32F
-EAGLE CREEK   CLOUDY    64  57  78 S15G29    29.31F
KOKOMO +       LGT RAIN  52  52 100 SE8       29.28F FOG
MT COMFORT *+  CLOUDY    59  59 100 S16G23    29.34F
SHELBYVILLE    CLOUDY    61  53  75 S17G28    29.37F

$$

INZ033-034-041-042-049-050-058-059-181700-
EAST CENTRAL INDIANA

CITY           SKY/WX    TMP DP  RH WIND       PRES   REMARKS
MUNCIE         CLOUDY    59  54  83 S17G23    29.34F
RICHMOND +     CLOUDY    55  54  94 S16       29.43F

$$

INZ060-061-067>069-081>083-085>088-181700-
SOUTHWEST INDIANA

CITY           SKY/WX    TMP DP  RH WIND       PRES   REMARKS
EVANSVILLE     LGT RAIN  65  61  87 S22G30    29.48F
HUNTINGBURG +  CLOUDY    63  59  87 S23G33    29.48F

$$

INZ062-063-066-070>080-084-089>092-181700-
SOUTH CENTRAL AND SOUTHEAST INDIANA

CITY           SKY/WX    TMP DP  RH WIND       PRES   REMARKS
BLOOMINGTON    CLOUDY    65  57  75 SW25G37   29.36F
MADISON *+     CLOUDY    63  54  72 S20G43    29.49F
SEYMOUR +      CLOUDY    64  55  72 SW24G33   29.42F

$$





USA.gov is the U.S. government's official web portal to all federal, state and local government web resources and services.